Delta Virtual Airport Information Service

Seoul Incheon International Airport

ICAO: RKSI Country: South Korea
Latitude: 37.4691 Longitude: 126.451
Latest Arrival : DAL27 (KATL-RKSI) Latest Departure : DALJUMP (RKSI-KLGA)


WX CaptureLIVE
Data provided by noaa.gov | Fetched at 10:16:19

METAR : RKSI 151500Z 05006KT 9999 FEW035 22/18 Q1004 NOSIG

TAF : RKSI 151100Z 1512/1618 06008KT CAVOK TN19/1521Z TX29/1605Z BECMG 1614/1615 12006KT


Runway Data for RKSI
Data provided by openaviationdata.com

Runway ID Mag Var Hdg Length Elevation Surface ILS Freq ILS Id ILS Slope
15L -8 152° 12308 ft 23 ft Asphalt 111.9 ISLL 3
15R -8 152° 12308 ft 23 ft Asphalt 109.1 ISRR 3
33L -8 332° 12308 ft 23 ft Asphalt 109.3 INLL 3
33R -8 332° 12308 ft 23 ft Asphalt 108.9 INRR 3

Seoul Incheon International Airport, South Korea
Use only for reference purposes



Not for navigational purposes.